Weather History for Hettinger, ND

Change the Weather History Date:

Monday, February 3, 2014

  Actual Average Record
Temperature  
Mean Temperature 7 °F -  
Max Temperature 16 °F 29 °F 61 °F (2005)
Min Temperature -2 °F 7 °F -20 °F (2007)
Degree Days  
Heating Degree Days 58 47  
Month to date heating degree days 184 141  
Since 1 July heating degree days 5373 5217  
Moisture  
Dew Point 2 °F    
Average Humidity 75    
Maximum Humidity 87    
Minimum Humidity 62    
Precipitation  
Precipitation T in 0.02 in 0.01 in (2001)
Month to date precipitation T 0.06  
Year to date precipitation 0.14 0.37  
Sea Level Pressure  
Sea Level Pressure 30.24 in    
Wind  
Wind Speed 8 mph (NNE)    
Max Wind Speed 21 mph    
Max Gust Speed 24 mph    
Visibility 8 miles    
Events Snow    
T = Trace of Precipitation, MM = Missing Value Source: NWS Daily Summary

Daily Weather History Graph

Daily Weather History Graph

Search for Another Location

Airport:

Trip Planner

Search our weather history database for the weather conditions in past years. The results will help you decide how hot, cold, wet, or windy it might be!

Date:

Astronomy

Feb. 03, 2014 Rise Set
Actual Time 7:10 AM MST 4:59 PM MST
Civil Twilight 6:38 AM MST 5:30 PM MST
Nautical Twilight 6:03 AM MST 6:06 PM MST
Astronomical Twilight 5:28 AM MST 6:41 PM MST
Moon 8:57 AM MST (2/3) 10:10 PM MST (2/3)
Length of Visible Light 10h 52m
Length of Day
9h 48m
Waxing Crescent, 20% of the Moon is Illuminated
Feb 3
Waxing Crescent
Feb 6
First Quarter
Feb 14
Full
Feb 22
Last Quarter
Mar 1
New

Hourly Weather History & Observations

Time (MST) Temp. Windchill Dew Point Humidity Pressure Visibility Wind Dir Wind Speed Gust Speed Precip Events Conditions
12:39 AM 3.0 °F -6.4 °F -0.9 °F 84% 30.03 in 10.0 mi North 4.6 mph - N/A   Scattered Clouds
12:53 AM 3.9 °F -6.9 °F -0.9 °F 80% 30.19 in 10.0 mi North 5.8 mph - N/A   Clear
1:53 AM -0.9 °F -8.9 °F -5.1 °F 83% 30.22 in 10.0 mi SW 3.5 mph - N/A   Scattered Clouds
2:53 AM 1.0 °F - -2.9 °F 83% 30.22 in 10.0 mi Calm Calm - N/A   Overcast
3:53 AM 1.9 °F - -2.0 °F 83% 30.22 in 10.0 mi Calm Calm - N/A   Overcast
4:53 AM 3.9 °F - -0.0 °F 84% 30.22 in 10.0 mi Calm Calm - N/A   Overcast
5:53 AM 1.9 °F - -2.0 °F 83% 30.24 in 10.0 mi Calm Calm - N/A   Overcast
6:53 AM 3.9 °F - -0.0 °F 84% 30.24 in 10.0 mi Calm Calm - N/A   Overcast
7:53 AM 6.1 °F - 1.0 °F 80% 30.26 in 10.0 mi Calm Calm - N/A   Overcast
8:53 AM 8.1 °F - 3.9 °F 83% 30.29 in 3.0 mi Calm Calm - 0.00 in Snow Light Snow
9:02 AM 9.0 °F - 3.9 °F 80% 30.10 in 2.5 mi Calm Calm - 0.00 in Snow Light Snow
9:27 AM 10.0 °F 3.6 °F 5.0 °F 80% 30.11 in 3.0 mi NW 3.5 mph - 0.00 in Snow Light Snow
9:41 AM 10.0 °F 3.6 °F 5.0 °F 80% 30.11 in 2.5 mi NW 3.5 mph - 0.00 in Snow Light Snow
9:53 AM 10.9 °F 4.7 °F 6.1 °F 81% 30.30 in 2.5 mi NW 3.5 mph - 0.00 in Snow Light Snow
10:06 AM 12.0 °F 5.9 °F 6.1 °F 77% 30.12 in 3.0 mi West 3.5 mph - 0.00 in Snow Light Snow
10:53 AM 12.0 °F 5.9 °F 6.1 °F 77% 30.29 in 3.0 mi West 3.5 mph - 0.00 in Snow Light Snow
11:06 AM 14.0 °F 8.2 °F 7.0 °F 74% 30.11 in 4.0 mi WNW 3.5 mph - 0.00 in Snow Light Snow
11:53 AM 15.1 °F 6.4 °F 6.1 °F 68% 30.27 in 8.0 mi North 5.8 mph - 0.00 in Snow Light Snow
12:06 PM 15.1 °F 6.4 °F 6.1 °F 68% 30.10 in 10.0 mi NNE 5.8 mph - 0.00 in   Overcast
12:20 PM 15.1 °F 7.7 °F 6.1 °F 68% 30.10 in 10.0 mi NE 4.6 mph - 0.00 in   Overcast
12:53 PM 15.1 °F 3.3 °F 6.1 °F 68% 30.27 in 8.0 mi North 9.2 mph - 0.00 in   Overcast
1:31 PM 15.1 °F 2.5 °F 6.1 °F 68% 30.10 in 5.0 mi NNE 10.4 mph - 0.00 in Snow Light Snow
1:40 PM 15.1 °F 2.5 °F 6.1 °F 68% 30.10 in 7.0 mi NNE 10.4 mph - 0.00 in Snow Light Snow
1:51 PM 15.8 °F 3.4 °F 6.8 °F 68% 30.11 in 10.0 mi North 10.4 mph - 0.00 in   Overcast
1:53 PM 15.1 °F 1.8 °F 6.1 °F 68% 30.28 in 10.0 mi NNE 11.5 mph - 0.00 in   Overcast
2:22 PM 14.0 °F 0.5 °F 5.0 °F 67% 30.11 in 10.0 mi NNE 11.5 mph - N/A   Overcast
2:53 PM 15.1 °F 3.3 °F 6.1 °F 68% 30.30 in 10.0 mi NNE 9.2 mph - N/A   Mostly Cloudy
3:06 PM 12.9 °F -0.2 °F 3.9 °F 67% 30.13 in 10.0 mi NNE 10.4 mph - N/A   Mostly Cloudy
3:53 PM 10.9 °F -4.1 °F 3.9 °F 73% 30.33 in 2.5 mi NNE 12.7 mph - 0.00 in Snow Light Snow
4:18 PM 9.0 °F -8.5 °F 3.0 °F 77% 30.16 in 4.0 mi NNE 16.1 mph - 0.00 in Snow Light Snow
4:43 PM 9.0 °F -7.3 °F 3.0 °F 77% 30.17 in 2.5 mi NNE 13.8 mph - 0.00 in Snow Light Snow
4:53 PM 8.1 °F -6.2 °F 3.0 °F 80% 30.35 in 6.0 mi NE 10.4 mph - 0.00 in Snow Light Snow
5:15 PM 7.0 °F -12.1 °F 1.9 °F 80% 30.18 in 7.0 mi NNE 18.4 mph - 0.00 in   Overcast
5:53 PM 6.1 °F -13.3 °F -0.0 °F 76% 30.39 in 10.0 mi NE 18.4 mph - 0.00 in   Overcast
6:30 PM 3.9 °F -15.6 °F -0.9 °F 80% 30.21 in 10.0 mi NNE 17.3 mph - N/A   Overcast
6:53 PM 3.9 °F -16.1 °F -2.9 °F 73% 30.41 in 10.0 mi NNE 18.4 mph - N/A   Overcast
7:53 PM 1.9 °F -18.1 °F -6.0 °F 69% 30.43 in 10.0 mi NNE 17.3 mph - N/A   Overcast
8:53 PM 1.9 °F -18.1 °F -7.1 °F 66% 30.45 in 10.0 mi NE 17.3 mph - N/A   Overcast
9:53 PM 1.0 °F -18.0 °F -8.0 °F 66% 30.46 in 9.0 mi NE 15.0 mph - 0.00 in   Overcast
10:53 PM 1.0 °F -15.8 °F -9.0 °F 63% 30.48 in 10.0 mi NE 11.5 mph - N/A   Overcast
11:53 PM 1.0 °F -12.9 °F -9.0 °F 63% 30.48 in 10.0 mi NE 8.1 mph - N/A   Overcast